| time (UTC) | temp F | wind direction | speed MPH | gust MPH | rain 1hr in | rain 24hr in | rain mn in | humidity % | barometer mb |
| 20260506164800 | 87 | 197 | 2.0 | 6.0 | 0.00 | 0.00 | 0.00 | 55 | 1016.5 |
| 20260506164546 | 87 | 172 | 2.0 | 7.0 | 0.00 | 0.00 | 0.00 | 57 | 1015.7 |
| 20260506164301 | 87 | 293 | 2.0 | 7.0 | 0.00 | 0.00 | 0.00 | 57 | 1016.7 |
| 20260506163250 | 87 | 236 | 3.0 | 9.0 | 0.00 | 0.00 | 0.00 | 55 | 1016.8 |
| 20260506163054 | 86 | 152 | 2.0 | 9.0 | 0.00 | 0.00 | 0.00 | 55 | 1015.8 |
| 20260506162751 | 87 | 240 | 3.0 | 9.0 | 0.00 | 0.00 | 0.00 | 55 | 1016.8 |
| 20260506162240 | 87 | 196 | 2.0 | 7.0 | 0.00 | 0.00 | 0.00 | 56 | 1016.8 |
| 20260506161740 | 86 | 175 | 2.0 | 6.0 | 0.00 | 0.00 | 0.00 | 57 | 1016.8 |
| 20260506161534 | 86 | 158 | 2.0 | 7.0 | 0.00 | 0.00 | 0.00 | 56 | 1016.0 |
| 20260506161241 | 86 | 276 | 2.0 | 5.0 | 0.00 | 0.00 | 0.00 | 57 | 1016.8 |
| 20260506160737 | 86 | 222 | 3.0 | 7.0 | 0.00 | 0.00 | 0.00 | 58 | 1016.9 |
| 20260506160237 | 85 | 178 | 3.0 | 7.0 | 0.00 | 0.00 | 0.00 | 56 | 1016.9 |
| 20260506160031 | 85 | 139 | 2.0 | 7.0 | 0.00 | 0.00 | 0.00 | 58 | 1016.1 |
| 20260506155235 | 85 | 354 | 2.0 | 8.0 | 0.00 | 0.00 | 0.00 | 58 | 1016.9 |
| 20260506154733 | 84 | 216 | 2.0 | 5.0 | 0.00 | 0.00 | 0.00 | 57 | 1016.8 |
| 20260506154534 | 84 | 107 | 2.0 | 6.0 | 0.00 | 0.00 | 0.00 | 59 | 1016.0 |
| 20260506154237 | 84 | 338 | 2.0 | 8.0 | 0.00 | 0.00 | 0.00 | 59 | 1016.9 |
| 20260506153222 | 84 | 247 | 2.0 | 8.0 | 0.00 | 0.00 | 0.00 | 59 | 1017.0 |
| 20260506153028 | 84 | 268 | 2.0 | 9.0 | 0.00 | 0.00 | 0.00 | 60 | 1016.1 |
| 20260506152718 | 84 | 213 | 3.0 | 8.0 | 0.00 | 0.00 | 0.00 | 59 | 1016.9 |
| 20260506152205 | 83 | 145 | 2.0 | 7.0 | 0.00 | 0.00 | 0.00 | 59 | 1017.1 |
| 20260506151655 | 83 | 52 | 2.0 | 5.0 | 0.00 | 0.00 | 0.00 | 60 | 1017.0 |
| 20260506151521 | 83 | 174 | 1.0 | 5.0 | 0.00 | 0.00 | 0.00 | 61 | 1016.2 |
| 20260506151143 | 83 | 353 | 2.0 | 5.0 | 0.00 | 0.00 | 0.00 | 60 | 1017.0 |
| 20260506150647 | 83 | 216 | 2.0 | 6.0 | 0.00 | 0.00 | 0.00 | 60 | 1016.8 |
| 20260506150138 | 82 | 218 | 2.0 | 6.0 | 0.00 | 0.00 | 0.00 | 61 | 1016.6 |
| 20260506150016 | 81 | 207 | 1.0 | 7.0 | 0.00 | 0.00 | 0.00 | 64 | 1015.7 |
| 20260506145629 | 81 | 226 | 3.0 | 12.0 | 0.00 | 0.00 | 0.00 | 63 | 1016.6 |
| 20260506145122 | 81 | 126 | 4.0 | 12.0 | 0.00 | 0.00 | 0.00 | 61 | 1016.7 |
| 20260506144623 | 80 | 197 | 2.0 | 9.0 | 0.00 | 0.00 | 0.00 | 63 | 1016.7 |
| 20260506144511 | 80 | 138 | 3.0 | 9.0 | 0.00 | 0.00 | 0.00 | 63 | 1015.8 |
| 20260506143052 | 79 | 243 | 3.0 | 9.0 | 0.00 | 0.00 | 0.00 | 65 | 1016.7 |
| 20260506143009 | 79 | 169 | 3.0 | 8.0 | 0.00 | 0.00 | 0.00 | 66 | 1015.9 |
| 20260506142544 | 79 | 231 | 2.0 | 7.0 | 0.00 | 0.00 | 0.00 | 68 | 1016.7 |
| 20260506142043 | 78 | 249 | 3.0 | 6.0 | 0.00 | 0.00 | 0.00 | 66 | 1016.8 |
| 20260506141540 | 78 | 216 | 4.0 | 8.0 | 0.00 | 0.00 | 0.00 | 67 | 1016.7 |
| 20260506141505 | 77 | 158 | 3.0 | 9.0 | 0.00 | 0.00 | 0.00 | 68 | 1015.9 |
| 20260506140534 | 77 | 218 | 3.0 | 9.0 | 0.00 | 0.00 | 0.00 | 67 | 1016.8 |
| 20260506140027 | 77 | 216 | 3.0 | 6.0 | 0.00 | 0.00 | 0.00 | 68 | 1016.7 |
| 20260506140003 | 77 | 154 | 1.0 | 7.0 | 0.00 | 0.00 | 0.00 | 69 | 1015.8 |
| 20260506135516 | 77 | 220 | 2.0 | 8.0 | 0.00 | 0.00 | 0.00 | 68 | 1016.6 |
| 20260506135006 | 77 | 205 | 3.0 | 10.0 | 0.00 | 0.00 | 0.00 | 68 | 1016.5 |
| 20260506134558 | 76 | 129 | 1.0 | 11.0 | 0.00 | 0.00 | 0.00 | 70 | 1015.6 |
| 20260506133438 | 76 | 197 | 3.0 | 9.0 | 0.00 | 0.00 | 0.00 | 69 | 1016.3 |
| 20260506133057 | 75 | 164 | 2.0 | 10.0 | 0.00 | 0.00 | 0.00 | 71 | 1015.4 |
| 20260506132936 | 76 | 198 | 3.0 | 9.0 | 0.00 | 0.00 | 0.00 | 70 | 1016.2 |
| 20260506132438 | 75 | 188 | 4.0 | 9.0 | 0.00 | 0.00 | 0.00 | 70 | 1016.3 |
| 20260506131937 | 75 | 236 | 4.0 | 8.0 | 0.00 | 0.00 | 0.00 | 70 | 1016.3 |
| 20260506131556 | 74 | 197 | 2.0 | 9.0 | 0.00 | 0.00 | 0.00 | 71 | 1015.5 |
| 20260506131435 | 74 | 227 | 3.0 | 8.0 | 0.00 | 0.00 | 0.00 | 70 | 1016.5 |
| 20260506130444 | 73 | 207 | 2.0 | 5.0 | 0.00 | 0.00 | 0.00 | 72 | 1016.5 |
| 20260506130049 | 72 | 127 | 1.0 | 6.0 | 0.00 | 0.00 | 0.00 | 74 | 1015.7 |
| 20260506125924 | 73 | 202 | 2.0 | 7.0 | 0.00 | 0.00 | 0.00 | 74 | 1016.6 |
| 20260506125418 | 72 | 180 | 2.0 | 7.0 | 0.00 | 0.00 | 0.00 | 74 | 1016.5 |
| 20260506124908 | 71 | 189 | 2.0 | 6.0 | 0.00 | 0.00 | 0.00 | 75 | 1016.5 |
| 20260506124546 | 70 | 149 | 2.0 | 5.0 | 0.00 | 0.00 | 0.00 | 77 | 1015.6 |
| 20260506124400 | 70 | 206 | 2.0 | 5.0 | 0.00 | 0.00 | 0.00 | 76 | 1016.4 |
| 20260506123855 | 70 | 171 | 3.0 | 5.0 | 0.00 | 0.00 | 0.00 | 77 | 1016.4 |
| 20260506123357 | 69 | 191 | 2.0 | 6.0 | 0.00 | 0.00 | 0.00 | 78 | 1016.4 |
| 20260506123040 | 68 | 169 | 2.0 | 6.0 | 0.00 | 0.00 | 0.00 | 79 | 1015.6 |
| 20260506122857 | 69 | 187 | 2.0 | 7.0 | 0.00 | 0.00 | 0.00 | 79 | 1016.3 |
| 20260506122350 | 68 | 197 | 2.0 | 7.0 | 0.00 | 0.00 | 0.00 | 79 | 1016.3 |
| 20260506121543 | 67 | 166 | 1.0 | 6.0 | 0.00 | 0.00 | 0.00 | 81 | 1015.4 |
| 20260506121352 | 67 | 224 | 2.0 | 8.0 | 0.00 | 0.00 | 0.00 | 80 | 1016.3 |
| 20260506120034 | 65 | 154 | 3.0 | 6.0 | 0.00 | 0.00 | 0.00 | 82 | 1015.4 |
| 20260506115850 | 65 | 199 | 2.0 | 5.0 | 0.00 | 0.00 | 0.00 | 82 | 1016.2 |
| 20260506115349 | 65 | 204 | 2.0 | 4.0 | 0.00 | 0.00 | 0.00 | 82 | 1016.3 |
| 20260506114836 | 64 | 245 | 1.0 | 4.0 | 0.00 | 0.00 | 0.00 | 82 | 1016.2 |
| 20260506114527 | 64 | 139 | 1.0 | 3.0 | 0.00 | 0.00 | 0.00 | 83 | 1015.3 |
| 20260506114336 | 64 | 196 | 1.0 | 3.0 | 0.00 | 0.00 | 0.00 | 82 | 1016.3 |
| 20260506113837 | 64 | 141 | 0.0 | 3.0 | 0.00 | 0.00 | 0.00 | 82 | 1016.3 |
| 20260506113331 | 63 | 326 | 0.0 | 2.0 | 0.00 | 0.00 | 0.00 | 82 | 1016.2 |
| 20260506113025 | 63 | 268 | 0.0 | 2.0 | 0.00 | 0.00 | 0.00 | 83 | 1015.2 |
| 20260506112826 | 63 | 326 | 0.0 | 2.0 | 0.00 | 0.00 | 0.00 | 82 | 1016.1 |
| 20260506112325 | 63 | 327 | 0.0 | 1.0 | 0.00 | 0.00 | 0.00 | 82 | 1016.0 |
| 20260506111826 | 63 | 329 | 0.0 | 1.0 | 0.00 | 0.00 | 0.00 | 82 | 1015.8 |
| 20260506111529 | 62 | 271 | 0.0 | 1.0 | 0.00 | 0.00 | 0.00 | 83 | 1014.9 |
| 20260506111329 | 63 | 329 | 0.0 | 1.0 | 0.00 | 0.00 | 0.00 | 82 | 1015.6 |
| 20260506110307 | 62 | 161 | 0.0 | 1.0 | 0.00 | 0.00 | 0.00 | 82 | 1015.5 |
| 20260506110023 | 62 | 151 | 0.0 | 1.0 | 0.00 | 0.00 | 0.00 | 83 | 1014.6 |
| 20260506105755 | 62 | 209 | 0.0 | 1.0 | 0.00 | 0.00 | 0.00 | 82 | 1015.5 |
| 20260506105247 | 62 | 209 | 0.0 | 1.0 | 0.00 | 0.00 | 0.00 | 82 | 1015.4 |
| 20260506104732 | 62 | 209 | 0.0 | 1.0 | 0.00 | 0.00 | 0.00 | 82 | 1015.3 |
| 20260506104519 | 62 | 151 | 0.0 | 1.0 | 0.00 | 0.00 | 0.00 | 83 | 1014.5 |
| 20260506104230 | 62 | 209 | 0.0 | 1.0 | 0.00 | 0.00 | 0.00 | 82 | 1015.4 |
| 20260506103731 | 63 | 209 | 0.0 | 1.0 | 0.00 | 0.00 | 0.00 | 82 | 1015.3 |
| 20260506103227 | 62 | 209 | 0.0 | 2.0 | 0.00 | 0.00 | 0.00 | 82 | 1015.4 |
| 20260506103019 | 62 | 151 | 0.0 | 2.0 | 0.00 | 0.00 | 0.00 | 83 | 1014.5 |
| 20260506102723 | 62 | 209 | 0.0 | 2.0 | 0.00 | 0.00 | 0.00 | 82 | 1015.4 |
| 20260506102208 | 63 | 209 | 0.0 | 1.0 | 0.00 | 0.00 | 0.00 | 82 | 1015.5 |
| 20260506101519 | 62 | 151 | 0.0 | 1.0 | 0.00 | 0.00 | 0.00 | 83 | 1014.6 |
| 20260506101209 | 63 | 209 | 0.0 | 1.0 | 0.00 | 0.00 | 0.00 | 82 | 1015.5 |
| 20260506100218 | 63 | 209 | 0.0 | 0.0 | 0.00 | 0.00 | 0.00 | 82 | 1015.6 |
| 20260506100018 | 63 | 151 | 0.0 | 0.0 | 0.00 | 0.00 | 0.00 | 83 | 1014.7 |
| 20260506094703 | 63 | 209 | 0.0 | 0.0 | 0.00 | 0.00 | 0.00 | 82 | 1015.5 |
| 20260506094518 | 63 | 151 | 0.0 | 0.0 | 0.00 | 0.00 | 0.00 | 83 | 1014.7 |
| 20260506094207 | 63 | 209 | 0.0 | 0.0 | 0.00 | 0.00 | 0.00 | 82 | 1015.5 |
| 20260506093701 | 63 | 209 | 0.0 | 0.0 | 0.00 | 0.00 | 0.00 | 82 | 1015.5 |
| 20260506093201 | 63 | 209 | 0.0 | 0.0 | 0.00 | 0.00 | 0.00 | 82 | 1015.4 |
| 20260506093016 | 63 | 151 | 0.0 | 0.0 | 0.00 | 0.00 | 0.00 | 83 | 1014.5 |
| 20260506092703 | 63 | 209 | 0.0 | 0.0 | 0.00 | 0.00 | 0.00 | 82 | 1015.3 |
| 20260506092200 | 63 | 209 | 0.0 | 0.0 | 0.00 | 0.00 | 0.00 | 82 | 1015.3 |
| 20260506091700 | 63 | 209 | 0.0 | 0.0 | 0.00 | 0.00 | 0.00 | 82 | 1015.2 |
| 20260506091516 | 62 | 151 | 0.0 | 0.0 | 0.00 | 0.00 | 0.00 | 82 | 1014.4 |
| 20260506091200 | 63 | 209 | 0.0 | 1.0 | 0.00 | 0.00 | 0.00 | 81 | 1015.1 |
| 20260506090700 | 63 | 209 | 0.0 | 1.0 | 0.00 | 0.00 | 0.00 | 82 | 1015.1 |
| 20260506090202 | 63 | 209 | 0.0 | 1.0 | 0.00 | 0.00 | 0.00 | 82 | 1015.2 |
| 20260506090015 | 62 | 151 | 0.0 | 0.0 | 0.00 | 0.00 | 0.00 | 83 | 1014.3 |
| 20260506084655 | 63 | 209 | 0.0 | 2.0 | 0.00 | 0.00 | 0.00 | 82 | 1015.2 |
| 20260506084517 | 62 | 151 | 0.0 | 2.0 | 0.00 | 0.00 | 0.00 | 83 | 1014.3 |
| 20260506083652 | 62 | 209 | 0.0 | 1.0 | 0.00 | 0.00 | 0.00 | 82 | 1015.2 |
| 20260506083147 | 62 | 209 | 0.0 | 1.0 | 0.00 | 0.00 | 0.00 | 81 | 1015.2 |
| 20260506083017 | 62 | 151 | 0.0 | 1.0 | 0.00 | 0.00 | 0.00 | 83 | 1014.4 |
| 20260506082137 | 62 | 209 | 0.0 | 0.0 | 0.00 | 0.00 | 0.00 | 81 | 1015.4 |
| 20260506081638 | 63 | 209 | 0.0 | 0.0 | 0.00 | 0.00 | 0.00 | 81 | 1015.2 |
| 20260506081512 | 62 | 151 | 0.0 | 0.0 | 0.00 | 0.00 | 0.00 | 82 | 1014.3 |
| 20260506081132 | 63 | 209 | 0.0 | 1.0 | 0.00 | 0.00 | 0.00 | 81 | 1015.2 |
| 20260506080144 | 63 | 209 | 0.0 | 1.0 | 0.00 | 0.00 | 0.00 | 81 | 1015.2 |
| 20260506073100 | 62 | 209 | 0.0 | 1.0 | 0.00 | 0.00 | 0.00 | 81 | 1015.3 |
| 20260506073010 | 62 | 151 | 0.0 | 1.0 | 0.00 | 0.00 | 0.00 | 82 | 1014.4 |
| 20260506072600 | 62 | 209 | 0.0 | 1.0 | 0.00 | 0.00 | 0.00 | 80 | 1015.0 |
| 20260506072055 | 62 | 209 | 0.0 | 1.0 | 0.00 | 0.00 | 0.00 | 80 | 1014.9 |
| 20260506071543 | 62 | 209 | 0.0 | 1.0 | 0.00 | 0.00 | 0.00 | 80 | 1014.9 |
| 20260506071508 | 62 | 151 | 0.0 | 1.0 | 0.00 | 0.00 | 0.00 | 81 | 1014.1 |
| 20260506071039 | 62 | 209 | 0.0 | 0.0 | 0.00 | 0.00 | 0.00 | 80 | 1015.1 |
| 20260506070536 | 62 | 209 | 0.0 | 0.0 | 0.00 | 0.00 | 0.00 | 80 | 1015.1 |
| 20260506062019 | 62 | 209 | 0.0 | 0.0 | 0.00 | 0.00 | 0.00 | 79 | 1015.7 |
| 20260506061519 | 62 | 209 | 0.0 | 0.0 | 0.00 | 0.00 | 0.00 | 79 | 1015.8 |
| 20260506061504 | 62 | 151 | 0.0 | 0.0 | 0.00 | 0.00 | 0.00 | 80 | 1015.0 |
| 20260506051015 | 62 | 209 | 0.0 | 0.0 | 0.00 | 0.00 | 0.00 | 77 | 1016.1 |
| 20260506050508 | 62 | 209 | 0.0 | 0.0 | 0.00 | 0.00 | 0.00 | 77 | 1016.0 |
| 20260506044522 | 62 | 151 | 0.0 | 0.0 | 0.00 | 0.00 | 0.00 | 78 | 1015.3 |
| 20260506044507 | 62 | 209 | 0.0 | 0.0 | 0.00 | 0.00 | 0.00 | 77 | 1016.1 |
| 20260506044008 | 62 | 209 | 0.0 | 0.0 | 0.00 | 0.00 | 0.00 | 76 | 1016.2 |
| 20260506043507 | 62 | 209 | 0.0 | 0.0 | 0.00 | 0.00 | 0.00 | 76 | 1016.2 |
| 20260506043020 | 62 | 151 | 0.0 | 0.0 | 0.00 | 0.00 | 0.00 | 77 | 1015.3 |
| 20260506042504 | 62 | 209 | 0.0 | 0.0 | 0.00 | 0.00 | 0.00 | 76 | 1016.1 |
| 20260506042007 | 62 | 209 | 0.0 | 0.0 | 0.00 | 0.00 | 0.00 | 76 | 1016.1 |
| 20260506041532 | 62 | 151 | 0.0 | 0.0 | 0.00 | 0.00 | 0.00 | 77 | 1015.3 |
| 20260506041454 | 63 | 209 | 0.0 | 0.0 | 0.00 | 0.00 | 0.00 | 76 | 1016.1 |
| 20260506040947 | 63 | 209 | 0.0 | 0.0 | 0.00 | 0.00 | 0.00 | 76 | 1016.1 |
| 20260506040447 | 63 | 209 | 0.0 | 0.0 | 0.00 | 0.00 | 0.00 | 76 | 1016.0 |
| 20260506040017 | 63 | 151 | 0.0 | 0.0 | 0.00 | 0.00 | 0.00 | 77 | 1015.3 |
| 20260506035946 | 63 | 209 | 0.0 | 0.0 | 0.00 | 0.00 | 0.00 | 76 | 1016.1 |
| 20260506034924 | 63 | 209 | 0.0 | 0.0 | 0.00 | 0.00 | 0.00 | 76 | 1016.2 |
| 20260506034523 | 63 | 151 | 0.0 | 0.0 | 0.00 | 0.00 | 0.00 | 77 | 1015.4 |
| 20260506034412 | 64 | 209 | 0.0 | 0.0 | 0.00 | 0.00 | 0.00 | 76 | 1016.4 |
| 20260506033905 | 64 | 209 | 0.0 | 0.0 | 0.00 | 0.00 | 0.00 | 76 | 1016.4 |
| 20260506033405 | 64 | 209 | 0.0 | 0.0 | 0.00 | 0.00 | 0.00 | 76 | 1016.5 |
| 20260506033017 | 63 | 151 | 0.0 | 0.0 | 0.00 | 0.00 | 0.00 | 77 | 1015.6 |
| 20260506032904 | 64 | 209 | 0.0 | 0.0 | 0.00 | 0.00 | 0.00 | 76 | 1016.5 |
| 20260506032400 | 64 | 209 | 0.0 | 0.0 | 0.00 | 0.00 | 0.00 | 75 | 1016.5 |
| 20260506031853 | 64 | 209 | 0.0 | 0.0 | 0.00 | 0.00 | 0.00 | 75 | 1016.4 |
| 20260506031516 | 64 | 151 | 0.0 | 0.0 | 0.00 | 0.00 | 0.00 | 76 | 1015.5 |
| 20260506031351 | 64 | 209 | 0.0 | 0.0 | 0.00 | 0.00 | 0.00 | 74 | 1016.3 |
| 20260506030349 | 64 | 209 | 0.0 | 0.0 | 0.00 | 0.00 | 0.00 | 73 | 1016.3 |
| 20260506030017 | 64 | 151 | 0.0 | 0.0 | 0.00 | 0.00 | 0.00 | 74 | 1015.3 |
| 20260506025840 | 64 | 209 | 0.0 | 0.0 | 0.00 | 0.00 | 0.00 | 74 | 1016.2 |
| 20260506025339 | 64 | 209 | 0.0 | 0.0 | 0.00 | 0.00 | 0.00 | 74 | 1016.2 |
| 20260506024841 | 64 | 209 | 0.0 | 0.0 | 0.00 | 0.00 | 0.00 | 74 | 1016.2 |
| 20260506024514 | 64 | 151 | 0.0 | 0.0 | 0.00 | 0.00 | 0.00 | 74 | 1015.3 |
| 20260506024340 | 65 | 209 | 0.0 | 0.0 | 0.00 | 0.00 | 0.00 | 73 | 1016.1 |
| 20260506023829 | 65 | 209 | 0.0 | 0.0 | 0.00 | 0.00 | 0.00 | 73 | 1016.1 |
| 20260506023329 | 65 | 209 | 0.0 | 0.0 | 0.00 | 0.00 | 0.00 | 73 | 1016.0 |
| 20260506023014 | 65 | 151 | 0.0 | 0.0 | 0.00 | 0.00 | 0.00 | 74 | 1015.2 |
| 20260506022830 | 65 | 209 | 0.0 | 0.0 | 0.00 | 0.00 | 0.00 | 73 | 1016.0 |
| 20260506022327 | 65 | 209 | 0.0 | 1.0 | 0.00 | 0.00 | 0.00 | 73 | 1016.0 |
| 20260506021821 | 65 | 209 | 0.0 | 1.0 | 0.00 | 0.00 | 0.00 | 72 | 1016.0 |
| 20260506021514 | 65 | 151 | 0.0 | 1.0 | 0.00 | 0.00 | 0.00 | 73 | 1015.1 |
| 20260506021310 | 66 | 209 | 0.0 | 2.0 | 0.00 | 0.00 | 0.00 | 72 | 1015.9 |
| 20260506020803 | 66 | 209 | 0.0 | 2.0 | 0.00 | 0.00 | 0.00 | 72 | 1015.9 |
| 20260506020258 | 66 | 209 | 0.0 | 2.0 | 0.00 | 0.00 | 0.00 | 71 | 1015.8 |
| 20260506020013 | 66 | 152 | 0.0 | 1.0 | 0.00 | 0.00 | 0.00 | 72 | 1015.0 |
| 20260506015756 | 67 | 210 | 0.0 | 0.0 | 0.00 | 0.00 | 0.00 | 71 | 1015.8 |
| 20260506015258 | 67 | 210 | 0.0 | 1.0 | 0.00 | 0.00 | 0.00 | 70 | 1015.8 |
| 20260506014753 | 67 | 210 | 0.0 | 1.0 | 0.00 | 0.00 | 0.00 | 70 | 1015.7 |
| 20260506014512 | 67 | 152 | 0.0 | 1.0 | 0.00 | 0.00 | 0.00 | 71 | 1014.8 |
| 20260506014245 | 67 | 210 | 0.0 | 1.0 | 0.00 | 0.00 | 0.00 | 70 | 1015.6 |
| 20260506013744 | 67 | 210 | 0.0 | 2.0 | 0.00 | 0.00 | 0.00 | 70 | 1015.6 |
| 20260506013245 | 68 | 209 | 1.0 | 2.0 | 0.00 | 0.00 | 0.00 | 69 | 1015.5 |
| 20260506013030 | 68 | 151 | 0.0 | 2.0 | 0.00 | 0.00 | 0.00 | 70 | 1014.6 |
| 20260506012746 | 68 | 210 | 0.0 | 2.0 | 0.00 | 0.00 | 0.00 | 69 | 1015.5 |
| 20260506012241 | 69 | 209 | 0.0 | 2.0 | 0.00 | 0.00 | 0.00 | 68 | 1015.5 |
| 20260506011745 | 69 | 209 | 1.0 | 2.0 | 0.00 | 0.00 | 0.00 | 68 | 1015.5 |
| 20260506011522 | 68 | 151 | 0.0 | 3.0 | 0.00 | 0.00 | 0.00 | 69 | 1014.7 |
| 20260506010726 | 69 | 207 | 0.0 | 2.0 | 0.00 | 0.00 | 0.00 | 67 | 1015.6 |
| 20260506010219 | 69 | 205 | 1.0 | 3.0 | 0.00 | 0.00 | 0.00 | 67 | 1015.5 |
| 20260506010012 | 69 | 147 | 0.0 | 3.0 | 0.00 | 0.00 | 0.00 | 68 | 1014.7 |
| 20260506005718 | 69 | 205 | 1.0 | 4.0 | 0.00 | 0.00 | 0.00 | 67 | 1015.4 |
| 20260506005220 | 69 | 213 | 0.0 | 4.0 | 0.00 | 0.00 | 0.00 | 66 | 1015.5 |
| 20260506004511 | 69 | 130 | 0.0 | 3.0 | 0.00 | 0.00 | 0.00 | 67 | 1014.7 |
| 20260506004212 | 70 | 188 | 1.0 | 3.0 | 0.00 | 0.00 | 0.00 | 66 | 1015.5 |
| 20260506003703 | 70 | 207 | 1.0 | 3.0 | 0.00 | 0.00 | 0.00 | 65 | 1015.5 |
| 20260506003152 | 70 | 207 | 1.0 | 3.0 | 0.00 | 0.00 | 0.00 | 65 | 1015.4 |
| 20260506003011 | 70 | 149 | 0.0 | 3.0 | 0.00 | 0.00 | 0.00 | 66 | 1014.6 |
| 20260506002643 | 70 | 207 | 1.0 | 3.0 | 0.00 | 0.00 | 0.00 | 65 | 1015.3 |
| 20260506001616 | 71 | 201 | 2.0 | 5.0 | 0.00 | 0.00 | 0.00 | 65 | 1015.3 |
| 20260506001510 | 70 | 143 | 2.0 | 4.0 | 0.00 | 0.00 | 0.00 | 66 | 1014.4 |
| 20260506001107 | 71 | 199 | 2.0 | 5.0 | 0.00 | 0.00 | 0.00 | 65 | 1015.3 |
| 20260506000552 | 71 | 228 | 2.0 | 6.0 | 0.00 | 0.00 | 0.00 | 65 | 1015.3 |
| 20260506000056 | 71 | 209 | 2.0 | 6.0 | 0.00 | 0.00 | 0.00 | 65 | 1015.2 |
| 20260506000010 | 71 | 152 | 1.0 | 6.0 | 0.00 | 0.00 | 0.00 | 66 | 1014.5 |
| 20260505235028 | 72 | 226 | 2.0 | 4.0 | 0.00 | 0.00 | 0.00 | 65 | 1015.3 |
| 20260505234525 | 72 | 196 | 2.0 | 4.0 | 0.00 | 0.00 | 0.00 | 64 | 1015.4 |
| 20260505234509 | 72 | 138 | 2.0 | 5.0 | 0.00 | 0.00 | 0.00 | 65 | 1014.5 |
| 20260505234026 | 72 | 190 | 2.0 | 4.0 | 0.00 | 0.00 | 0.00 | 64 | 1015.3 |
| 20260505233539 | 73 | 222 | 2.0 | 6.0 | 0.00 | 0.00 | 0.00 | 64 | 1015.5 |
| 20260505233008 | 72 | 177 | 3.0 | 6.0 | 0.00 | 0.00 | 0.00 | 64 | 1014.7 |
| 20260505232506 | 73 | 213 | 2.0 | 7.0 | 0.00 | 0.00 | 0.00 | 63 | 1015.4 |
| 20260505232004 | 73 | 184 | 3.0 | 7.0 | 0.00 | 0.00 | 0.00 | 62 | 1015.3 |
| 20260505231507 | 73 | 31 | 3.0 | 6.0 | 0.00 | 0.00 | 0.00 | 63 | 1014.5 |
| 20260505231505 | 73 | 224 | 3.0 | 7.0 | 0.00 | 0.00 | 0.00 | 62 | 1015.3 |
| 20260505231004 | 73 | 199 | 3.0 | 9.0 | 0.00 | 0.00 | 0.00 | 62 | 1015.2 |
| 20260505230504 | 73 | 157 | 3.0 | 9.0 | 0.00 | 0.00 | 0.00 | 62 | 1015.3 |
| 20260505230007 | 73 | 103 | 3.0 | 10.0 | 0.00 | 0.00 | 0.00 | 63 | 1014.5 |
| 20260505230001 | 73 | 341 | 4.0 | 9.0 | 0.00 | 0.00 | 0.00 | 62 | 1015.3 |
| 20260505225501 | 74 | 201 | 4.0 | 9.0 | 0.00 | 0.00 | 0.00 | 61 | 1015.3 |
| 20260505225003 | 74 | 245 | 3.0 | 9.0 | 0.00 | 0.00 | 0.00 | 61 | 1015.3 |
| 20260505224511 | 73 | 154 | 2.0 | 6.0 | 0.00 | 0.00 | 0.00 | 62 | 1014.4 |
| 20260505224000 | 74 | 235 | 4.0 | 10.0 | 0.00 | 0.00 | 0.00 | 62 | 1015.3 |
| 20260505223005 | 74 | 45 | 3.0 | 7.0 | 0.00 | 0.00 | 0.00 | 63 | 1014.4 |
| 20260505222957 | 74 | 218 | 3.0 | 8.0 | 0.00 | 0.00 | 0.00 | 62 | 1015.3 |
| 20260505221505 | 74 | 165 | 3.0 | 9.0 | 0.00 | 0.00 | 0.00 | 62 | 1014.3 |
| 20260505221456 | 74 | 217 | 4.0 | 9.0 | 0.00 | 0.00 | 0.00 | 61 | 1015.1 |
| 20260505220956 | 75 | 208 | 4.0 | 10.0 | 0.00 | 0.00 | 0.00 | 61 | 1015.3 |
| 20260505220010 | 74 | 145 | 2.0 | 9.0 | 0.00 | 0.00 | 0.00 | 62 | 1014.4 |
| 20260505215956 | 75 | 191 | 3.0 | 8.0 | 0.00 | 0.00 | 0.00 | 61 | 1015.2 |
| 20260505215443 | 75 | 222 | 3.0 | 10.0 | 0.00 | 0.00 | 0.00 | 61 | 1015.3 |
| 20260505214944 | 75 | 142 | 4.0 | 10.0 | 0.00 | 0.00 | 0.00 | 61 | 1015.3 |
| 20260505214503 | 75 | 63 | 4.0 | 9.0 | 0.00 | 0.00 | 0.00 | 62 | 1014.6 |
| 20260505214445 | 75 | 157 | 5.0 | 8.0 | 0.00 | 0.00 | 0.00 | 61 | 1015.4 |
| 20260505213941 | 75 | 93 | 5.0 | 11.0 | 0.00 | 0.00 | 0.00 | 61 | 1015.3 |
| 20260505213436 | 75 | 205 | 5.0 | 11.0 | 0.00 | 0.00 | 0.00 | 60 | 1015.4 |
| 20260505213002 | 75 | 39 | 3.0 | 9.0 | 0.00 | 0.00 | 0.00 | 62 | 1014.6 |
| 20260505212924 | 76 | 101 | 4.0 | 9.0 | 0.00 | 0.00 | 0.00 | 60 | 1015.5 |
| 20260505212415 | 76 | 178 | 4.0 | 10.0 | 0.00 | 0.00 | 0.00 | 61 | 1015.4 |
| 20260505211913 | 76 | 147 | 5.0 | 12.0 | 0.00 | 0.00 | 0.00 | 61 | 1015.5 |
| 20260505211502 | 76 | 159 | 4.0 | 14.0 | 0.00 | 0.00 | 0.00 | 62 | 1014.6 |
| 20260505211414 | 76 | 228 | 5.0 | 12.0 | 0.00 | 0.00 | 0.00 | 60 | 1015.4 |
| 20260505210912 | 77 | 182 | 4.0 | 10.0 | 0.00 | 0.00 | 0.00 | 59 | 1015.4 |
| 20260505210416 | 77 | 224 | 5.0 | 12.0 | 0.00 | 0.00 | 0.00 | 58 | 1015.4 |
| 20260505210001 | 76 | 185 | 4.0 | 11.0 | 0.00 | 0.00 | 0.00 | 60 | 1014.4 |
| 20260505205401 | 77 | 243 | 4.0 | 11.0 | 0.00 | 0.00 | 0.00 | 57 | 1015.4 |
| 20260505204901 | 77 | 187 | 4.0 | 11.0 | 0.00 | 0.00 | 0.00 | 56 | 1015.4 |
| 20260505204605 | 77 | 44 | 2.0 | 12.0 | 0.00 | 0.00 | 0.00 | 58 | 1014.6 |
| 20260505203851 | 78 | 230 | 4.0 | 12.0 | 0.00 | 0.00 | 0.00 | 56 | 1015.4 |
| 20260505203108 | 77 | 133 | 4.0 | 14.0 | 0.00 | 0.00 | 0.00 | 57 | 1014.6 |
| 20260505202849 | 78 | 137 | 5.0 | 12.0 | 0.00 | 0.00 | 0.00 | 54 | 1015.5 |
| 20260505202351 | 78 | 216 | 4.0 | 9.0 | 0.00 | 0.00 | 0.00 | 53 | 1015.5 |
| 20260505201841 | 78 | 108 | 5.0 | 12.0 | 0.00 | 0.00 | 0.00 | 51 | 1015.7 |
| 20260505201558 | 78 | 36 | 2.0 | 12.0 | 0.00 | 0.00 | 0.00 | 53 | 1014.8 |
| 20260505201342 | 79 | 200 | 5.0 | 12.0 | 0.00 | 0.00 | 0.00 | 51 | 1015.8 |
| 20260505200841 | 79 | 205 | 4.0 | 10.0 | 0.00 | 0.00 | 0.00 | 52 | 1015.7 |
| 20260505200333 | 79 | 224 | 4.0 | 10.0 | 0.00 | 0.00 | 0.00 | 50 | 1015.9 |
| 20260505200109 | 79 | 140 | 3.0 | 11.0 | 0.00 | 0.00 | 0.00 | 52 | 1014.9 |
| 20260505195312 | 79 | 205 | 4.0 | 9.0 | 0.00 | 0.00 | 0.00 | 50 | 1016.0 |
| 20260505194804 | 80 | 197 | 4.0 | 12.0 | 0.00 | 0.00 | 0.00 | 51 | 1016.1 |
| 20260505194556 | 79 | 97 | 3.0 | 13.0 | 0.00 | 0.00 | 0.00 | 51 | 1015.3 |
| 20260505194303 | 80 | 52 | 4.0 | 12.0 | 0.00 | 0.00 | 0.00 | 51 | 1016.2 |
| 20260505193301 | 79 | 176 | 4.0 | 13.0 | 0.00 | 0.00 | 0.00 | 51 | 1016.2 |
| 20260505193104 | 79 | 151 | 4.0 | 13.0 | 0.00 | 0.00 | 0.00 | 52 | 1015.4 |
| 20260505192759 | 80 | 198 | 4.0 | 13.0 | 0.00 | 0.00 | 0.00 | 52 | 1016.2 |
| 20260505192305 | 80 | 149 | 5.0 | 12.0 | 0.00 | 0.00 | 0.00 | 52 | 1016.2 |
| 20260505191757 | 80 | 180 | 5.0 | 12.0 | 0.00 | 0.00 | 0.00 | 52 | 1016.3 |
| 20260505191607 | 79 | 146 | 7.0 | 13.0 | 0.00 | 0.00 | 0.00 | 52 | 1015.6 |
| 20260505191257 | 80 | 173 | 5.0 | 16.0 | 0.00 | 0.00 | 0.00 | 51 | 1016.3 |
| 20260505190758 | 80 | 205 | 5.0 | 16.0 | 0.00 | 0.00 | 0.00 | 52 | 1016.3 |
| 20260505190254 | 80 | 233 | 4.0 | 10.0 | 0.00 | 0.00 | 0.00 | 53 | 1016.4 |
| 20260505190055 | 80 | 44 | 5.0 | 11.0 | 0.00 | 0.00 | 0.00 | 53 | 1015.6 |
| 20260505185255 | 80 | 162 | 5.0 | 11.0 | 0.00 | 0.00 | 0.00 | 53 | 1016.5 |
| 20260505184557 | 79 | 89 | 3.0 | 9.0 | 0.00 | 0.00 | 0.00 | 55 | 1015.8 |
| 20260505184254 | 80 | 187 | 5.0 | 12.0 | 0.00 | 0.00 | 0.00 | 54 | 1016.7 |
| 20260505183251 | 80 | 178 | 5.0 | 12.0 | 0.00 | 0.00 | 0.00 | 54 | 1016.8 |
| 20260505183053 | 79 | 128 | 7.0 | 12.0 | 0.00 | 0.00 | 0.00 | 55 | 1016.0 |
| 20260505182742 | 80 | 216 | 5.0 | 12.0 | 0.00 | 0.00 | 0.00 | 54 | 1016.8 |
| 20260505182234 | 80 | 244 | 4.0 | 10.0 | 0.00 | 0.00 | 0.00 | 54 | 1016.7 |
| 20260505181730 | 81 | 200 | 4.0 | 9.0 | 0.00 | 0.00 | 0.00 | 52 | 1016.8 |
| 20260505181557 | 80 | 146 | 3.0 | 8.0 | 0.00 | 0.00 | 0.00 | 55 | 1015.9 |
| 20260505181232 | 80 | 197 | 4.0 | 10.0 | 0.00 | 0.00 | 0.00 | 55 | 1016.8 |
| 20260505180730 | 80 | 197 | 4.0 | 10.0 | 0.00 | 0.00 | 0.00 | 53 | 1016.8 |
| 20260505180220 | 80 | 166 | 4.0 | 13.0 | 0.00 | 0.00 | 0.00 | 56 | 1016.7 |
| 20260505180052 | 80 | 85 | 2.0 | 13.0 | 0.00 | 0.00 | 0.00 | 57 | 1015.9 |
| 20260505175204 | 80 | 236 | 4.0 | 9.0 | 0.00 | 0.00 | 0.00 | 54 | 1016.8 |
| 20260505174655 | 80 | 165 | 4.0 | 13.0 | 0.00 | 0.00 | 0.00 | 55 | 1016.9 |
| 20260505174550 | 80 | 314 | 4.0 | 13.0 | 0.00 | 0.00 | 0.00 | 56 | 1016.0 |
| 20260505174150 | 80 | 229 | 4.0 | 13.0 | 0.00 | 0.00 | 0.00 | 55 | 1016.7 |
| 20260505173652 | 80 | 235 | 5.0 | 13.0 | 0.00 | 0.00 | 0.00 | 55 | 1016.6 |
| 20260505173054 | 80 | 155 | 4.0 | 13.0 | 0.00 | 0.00 | 0.00 | 55 | 1016.0 |
| 20260505172642 | 81 | 237 | 4.0 | 10.0 | 0.00 | 0.00 | 0.00 | 55 | 1016.9 |
| 20260505172142 | 81 | 194 | 4.0 | 10.0 | 0.00 | 0.00 | 0.00 | 55 | 1016.8 |
| 20260505171549 | 80 | 89 | 4.0 | 9.0 | 0.00 | 0.00 | 0.00 | 57 | 1016.0 |
| 20260505171128 | 80 | 187 | 5.0 | 10.0 | 0.00 | 0.00 | 0.00 | 58 | 1017.0 |
| 20260505170121 | 80 | 210 | 5.0 | 11.0 | 0.00 | 0.00 | 0.00 | 55 | 1017.2 |
| 20260505170047 | 80 | 143 | 6.0 | 11.0 | 0.00 | 0.00 | 0.00 | 55 | 1016.3 |
| 20260505165610 | 80 | 191 | 4.0 | 10.0 | 0.00 | 0.00 | 0.00 | 55 | 1017.2 |